TimePST,TemperatureF,Dew PointF,Humidity,Sea Level PressureIn,VisibilityMPH,Wind Direction,Wind SpeedMPH,Gust SpeedMPH,PrecipitationIn,Events,Conditions,WindDirDegrees,DateUTC
12:15 AM,41.0,37.4,87,29.88,10.0,Calm,Calm,-,N/A,,Clear,0,2012-12-14 08:15:00
12:30 AM,41.0,37.4,87,29.87,10.0,Calm,Calm,-,N/A,,Clear,0,2012-12-14 08:30:00
12:50 AM,39.2,37.4,93,29.87,10.0,South,3.5,-,N/A,,Clear,170,2012-12-14 08:50:00
1:15 AM,39.2,35.6,87,29.87,10.0,Calm,Calm,-,N/A,,Clear,0,2012-12-14 09:15:00
1:30 AM,39.2,37.4,93,29.87,10.0,Calm,Calm,-,N/A,,Clear,0,2012-12-14 09:30:00
1:50 AM,41.0,37.4,87,29.87,10.0,SSE,3.5,-,N/A,,Clear,160,2012-12-14 09:50:00
2:15 AM,39.2,35.6,87,29.87,10.0,SSE,3.5,-,N/A,,Clear,160,2012-12-14 10:15:00
2:50 AM,39.2,35.6,87,29.86,10.0,SSE,4.6,-,N/A,,Clear,160,2012-12-14 10:50:00
3:15 AM,39.2,35.6,87,29.85,10.0,South,3.5,-,N/A,,Clear,180,2012-12-14 11:15:00
3:30 AM,39.2,35.6,87,29.85,10.0,SSW,3.5,-,N/A,,Clear,200,2012-12-14 11:30:00
3:50 AM,39.2,37.4,93,29.84,10.0,Calm,Calm,-,N/A,,Clear,0,2012-12-14 11:50:00
4:10 AM,41.0,37.4,87,29.84,10.0,Calm,Calm,-,N/A,,Partly Cloudy,0,2012-12-14 12:10:00
4:35 AM,41.0,37.4,87,29.84,10.0,SSE,3.5,-,N/A,,Scattered Clouds,150,2012-12-14 12:35:00
4:50 AM,41.0,37.4,87,29.84,10.0,Calm,Calm,-,N/A,,Mostly Cloudy,0,2012-12-14 12:50:00
5:10 AM,41.0,37.4,87,29.83,10.0,SSE,3.5,-,N/A,,Overcast,150,2012-12-14 13:10:00
5:35 AM,41.0,37.4,87,29.84,10.0,Calm,Calm,-,N/A,,Overcast,0,2012-12-14 13:35:00
5:50 AM,41.0,39.2,93,29.84,10.0,Calm,Calm,-,N/A,,Overcast,0,2012-12-14 13:50:00
6:10 AM,41.0,39.2,93,29.84,10.0,East,3.5,-,N/A,,Overcast,100,2012-12-14 14:10:00
6:30 AM,41.0,39.2,93,29.85,10.0,Calm,Calm,-,N/A,,Overcast,0,2012-12-14 14:30:00
6:47 AM,41.0,39.2,93,29.85,10.0,SE,3.5,-,N/A,,Mostly Cloudy,140,2012-12-14 14:47:00
6:55 AM,41.0,39.2,93,29.85,10.0,Calm,Calm,-,N/A,,Overcast,0,2012-12-14 14:55:00
7:47 AM,41.0,39.2,93,29.86,10.0,East,3.5,-,N/A,,Mostly Cloudy,80,2012-12-14 15:47:00
8:47 AM,44.6,39.2,81,29.88,10.0,Calm,Calm,-,N/A,,Mostly Cloudy,0,2012-12-14 16:47:00
9:47 AM,44.6,39.2,81,29.90,10.0,SE,3.5,-,N/A,,Mostly Cloudy,140,2012-12-14 17:47:00
10:47 AM,48.2,41.0,76,29.91,10.0,Variable,3.5,-,N/A,,Overcast,0,2012-12-14 18:47:00
11:50 AM,50.0,41.0,71,29.90,10.0,Variable,4.6,-,N/A,,Mostly Cloudy,0,2012-12-14 19:50:00
12:55 PM,51.8,41.0,67,29.89,10.0,North,8.1,-,N/A,,Overcast,10,2012-12-14 20:55:00
1:47 PM,50.0,41.0,71,29.90,10.0,North,6.9,-,N/A,,Overcast,10,2012-12-14 21:47:00
2:53 PM,50.0,39.2,66,29.92,15.0,North,5.8,-,N/A,,Overcast,10,2012-12-14 22:53:00
3:53 PM,50.0,39.2,66,29.95,15.0,North,8.1,-,N/A,,Overcast,350,2012-12-14 23:53:00
4:47 PM,50.0,41.0,71,29.97,15.0,North,8.1,-,N/A,,Overcast,360,2012-12-15 00:47:00
5:59 PM,48.2,42.8,82,29.98,10.0,Calm,Calm,-,N/A,,Overcast,0,2012-12-15 01:59:00
6:50 PM,50.0,41.0,71,30.00,10.0,Calm,Calm,-,N/A,,Overcast,0,2012-12-15 02:50:00
7:55 PM,48.2,41.0,76,30.00,10.0,SSW,3.5,-,N/A,,Clear,210,2012-12-15 03:55:00
8:53 PM,46.4,41.0,81,30.01,10.0,Calm,Calm,-,N/A,,Clear,0,2012-12-15 04:53:00
9:10 PM,46.4,41.0,81,30.01,10.0,Calm,Calm,-,N/A,,Clear,0,2012-12-15 05:10:00
9:30 PM,44.6,41.0,87,30.02,10.0,Calm,Calm,-,N/A,,Mostly Cloudy,0,2012-12-15 05:30:00
9:55 PM,44.6,41.0,87,30.02,10.0,South,3.5,-,N/A,,Overcast,180,2012-12-15 05:55:00
10:10 PM,44.6,41.0,87,30.02,10.0,SSE,3.5,-,N/A,,Overcast,150,2012-12-15 06:10:00
10:30 PM,44.6,39.2,81,30.03,10.0,Calm,Calm,-,N/A,,Overcast,0,2012-12-15 06:30:00
10:55 PM,44.6,41.0,87,30.04,10.0,Calm,Calm,-,N/A,,Overcast,0,2012-12-15 06:55:00
11:10 PM,44.6,41.0,87,30.04,10.0,Calm,Calm,-,N/A,,Overcast,0,2012-12-15 07:10:00
11:30 PM,44.6,41.0,87,30.04,10.0,Calm,Calm,-,N/A,,Scattered Clouds,0,2012-12-15 07:30:00
11:55 PM,42.8,39.2,87,30.04,10.0,Calm,Calm,-,N/A,,Clear,0,2012-12-15 07:55:00